Location: Fenn
(52.1430°N, 112.7440°W)
Time: 01:45:32
(UTC+00:00)

BlueWalker 3 - Pass Details

Date: 14 June 2023
Orbit: 491 x 508 km, 53.2° (Epoch: 28 September)

Event Time Altitude Azimuth Distance (km) Brightness Sun altitude
Rises 04:58:00 0° 287° (WNW) 2,579 6.5 -7.5°
Reaches altitude 10° 05:00:28 10° 272° (W) 1,697 5.2 -7.7°
Maximum altitude 05:03:33 23° 219° (SW) 1,088 3.5 -8.0°
Drops below altitude 10° 05:06:38 10° 165° (SSE) 1,699 4.0 -8.3°
Enters shadow 05:06:40 10° 165° (SSE) 1,713 4.0 -8.3°
